Location: Prague
(50.0830°N, 14.4670°E)
Time: 02:01:21
(UTC+01:00)

AO-85 - Visible Passes

Search period start: 07 December 2021 00:00
Search period end: 17 December 2021 00:00
Orbit: 521 x 762 km, 64.8° (Epoch: 12 March)

Date Brightness Start Highest point End Pass type
(mag) Time Alt. Az. Time Alt. Az. Time Alt. Az.
07 Dec ? 17:26:11 10° WSW 17:31:18 58° NW 17:35:45 14° NNE visible
07 Dec ? 19:08:44 10° WNW 19:12:47 22° NNW 19:13:20 21° NNW visible
08 Dec ? 17:51:08 10° WSW 17:55:56 36° NW 17:59:31 17° NNE visible
08 Dec ? 19:34:17 10° NW 19:37:06 17° NNW 19:37:06 17° NNW visible
09 Dec ? 16:34:19 10° SW 16:39:30 76° NW 16:44:51 10° NE visible
09 Dec ? 18:16:27 10° W 18:20:46 25° NNW 18:23:16 18° NNE visible
09 Dec ? 19:59:41 10° NW 20:00:51 13° NNW 20:00:51 13° NNW visible
10 Dec ? 16:59:03 10° WSW 17:04:02 45° NW 17:09:09 10° NNE visible
10 Dec ? 18:41:58 10° WNW 18:45:45 19° NNW 18:46:59 18° N visible
11 Dec ? 17:24:12 10° W 17:28:47 29° NNW 17:33:06 11° NNE visible
11 Dec ? 19:07:29 10° NW 19:10:41 17° N 19:10:41 17° N visible
12 Dec ? 17:49:39 10° WNW 17:53:42 22° NNW 17:56:48 14° NNE visible
12 Dec ? 19:32:42 10° NW 19:34:22 14° NNW 19:34:22 14° NNW visible
13 Dec ? 16:32:01 10° WSW 16:36:50 36° NW 16:41:44 10° NNE visible
13 Dec ? 18:15:12 10° NW 18:18:44 18° NNW 18:20:29 15° NNE visible
13 Dec ? 19:57:29 10° NNW 19:58:03 12° NNW 19:58:03 12° NNW visible
14 Dec ? 16:57:21 10° W 17:01:40 25° NNW 17:06:01 10° NNE visible
14 Dec ? 18:40:35 10° NW 18:43:52 16° N 18:44:10 16° N visible
15 Dec ? 17:22:53 10° WNW 17:26:39 19° NNW 17:30:16 11° NNE visible
15 Dec ? 19:05:35 10° NNW 19:07:50 16° N 19:07:50 16° N visible
16 Dec ? 17:48:24 10° NW 17:51:45 17° N 17:53:57 13° NNE visible
16 Dec ? 19:30:12 10° NNW 19:31:31 15° NNW 19:31:31 15° NNW visible
